Martinsburg, PA

9:47 AM EST on December 04, 2016 (GMT -0500)
Altoona-Blair County

Weather History for KAOO - October, 2013

Change the Weather History Date:

Thursday, October 10, 2013

  Actual Average Record
Temperature  
Mean Temperature 51 °F 53 °F  
Max Temperature 56 °F 63 °F 84 °F (1949)
Min Temperature 45 °F 42 °F 29 °F (1972)
Degree Days  
Heating Degree Days 14 12  
Month to date heating degree days 43 111  
Since 1 July heating degree days 212 282  
Cooling Degree Days 0 0  
Month to date cooling degree days 32 0  
Year to date cooling degree days 695 522  
Moisture  
Dew Point 45 °F    
Average Humidity 80    
Maximum Humidity 93    
Minimum Humidity 66    
Precipitation  
Precipitation 0.46 in 0.09 in 0.67 in (1999)
Month to date precipitation 1.33 0.85  
Year to date precipitation 22.38 25.23  
Sea Level Pressure  
Sea Level Pressure 30.21 in    
Wind  
Wind Speed 3 mph (NE)    
Max Wind Speed 8 mph    
Max Gust Speed 12 mph    
Visibility 9 miles    
Events Rain    
T = Trace of Precipitation, MM = Missing Value Source: NWS Daily Summary

Daily Weather History Graph

Daily Weather History Graph

Search for Another Location

Airport or City:

Trip Planner

Search our weather history database for the weather conditions in past years. The results will help you decide how hot, cold, wet, or windy it might be!

Date:

Astronomy

Oct. 10, 2013 Rise Set
Actual Time 7:19 AM EDT 6:40 PM EDT
Civil Twilight 6:51 AM EDT 7:07 PM EDT
Nautical Twilight 6:20 AM EDT 7:39 PM EDT
Astronomical Twilight 5:48 AM EDT 8:10 PM EDT
Moon 1:09 PM EDT (10/10) 11:16 PM EDT (10/10)
Length of Visible Light 12h 16m
Length of Day
11h 21m
Waxing Crescent, 35% of the Moon is Illuminated
Oct 10
Waxing Crescent
Oct 11
First Quarter
Oct 18
Full
Oct 26
Last Quarter
Nov 3
New

Hourly Weather History & Observations

Time (EDT) Temp. Windchill Dew Point Humidity Pressure Visibility Wind Dir Wind Speed Gust Speed Precip Events Conditions
12:53 AM 51.1 °F - 41.0 °F 68% 30.29 in 10.0 mi East 5.8 mph - N/A   Clear
1:53 AM 51.1 °F - 42.1 °F 71% 30.27 in 10.0 mi Calm Calm - N/A   Clear
2:53 AM 50.0 °F - 42.1 °F 74% 30.26 in 10.0 mi Calm Calm - N/A   Clear
3:53 AM 48.0 °F - 42.1 °F 80% 30.25 in 10.0 mi Calm Calm - N/A   Clear
4:53 AM 46.9 °F - 41.0 °F 80% 30.25 in 10.0 mi Calm Calm - N/A   Clear
5:53 AM 45.0 °F - 42.1 °F 90% 30.26 in 10.0 mi Calm Calm - N/A   Clear
6:53 AM 46.0 °F 44.8 °F 42.1 °F 86% 30.25 in 10.0 mi East 3.5 mph - N/A   Clear
7:53 AM 46.0 °F - 42.1 °F 86% 30.25 in 10.0 mi Calm Calm - N/A   Clear
8:53 AM 48.0 °F - 43.0 °F 83% 30.25 in 10.0 mi Calm Calm - N/A   Clear
9:53 AM 50.0 °F - 44.1 °F 80% 30.25 in 10.0 mi ENE 3.5 mph - N/A   Clear
10:53 AM 53.1 °F - 45.0 °F 74% 30.24 in 10.0 mi ENE 4.6 mph - N/A   Overcast
11:53 AM 55.0 °F - 44.1 °F 67% 30.23 in 10.0 mi Calm Calm - N/A   Scattered Clouds
12:53 PM 55.0 °F - 44.1 °F 67% 30.21 in 10.0 mi NNE 4.6 mph - 0.00 in   Overcast
1:53 PM 55.9 °F - 45.0 °F 67% 30.19 in 10.0 mi ENE 5.8 mph - 0.00 in   Overcast
2:53 PM 54.0 °F - 45.0 °F 72% 30.19 in 8.0 mi NNE 5.8 mph - 0.00 in Rain Light Rain
3:53 PM 52.0 °F - 46.9 °F 83% 30.19 in 10.0 mi NNE 5.8 mph - N/A Rain Light Rain
4:53 PM 51.1 °F - 48.0 °F 89% 30.19 in 6.0 mi NNE 5.8 mph - 0.03 in Rain Light Rain
5:53 PM 51.1 °F - 48.9 °F 92% 30.18 in 8.0 mi NNE 5.8 mph - 0.06 in Rain Light Rain
6:53 PM 50.0 °F - 48.0 °F 93% 30.18 in 8.0 mi NE 4.6 mph - 0.06 in Rain Light Rain
7:53 PM 50.0 °F - 48.9 °F 96% 30.17 in 8.0 mi NE 6.9 mph - 0.06 in Rain Light Rain
8:53 PM 50.0 °F - 48.0 °F 93% 30.16 in 8.0 mi NE 3.5 mph - 0.07 in Rain Light Rain
9:36 PM 50.0 °F - 48.2 °F 94% 30.15 in 10.0 mi NE 3.5 mph - 0.05 in Rain Light Rain
9:53 PM 50.0 °F - 48.9 °F 96% 30.16 in 10.0 mi NE 4.6 mph - 0.07 in Rain Light Rain
10:53 PM 50.0 °F - 48.0 °F 93% 30.14 in 9.0 mi NE 4.6 mph - 0.05 in Rain Light Rain
11:27 PM 50.0 °F - 48.2 °F 94% 30.12 in 10.0 mi Variable 4.6 mph - 0.02 in   Overcast
11:53 PM 50.0 °F - 48.0 °F 93% 30.12 in 10.0 mi NE 4.6 mph - 0.03 in   Overcast